[[{"header":{"parameterUnit":"m.s-1","parameterCategory":1,"la1":30.2991,"la2":30.254,"lo1":-89.0895,"lo2":-89.0444,"dy":0.0017,"dx":0.0017,"nx":28,"ny":28,"refTime":"2025-03-23T03:00:00:Z","depth":0,"parameterNumber":2,"parameterNumberName":"U-component_of_WINDS"},"data":[0,0,0,0,0,0,0,0,0,0,0,0,0,0,0,0,0,0,0,0,0,0,0,0,0,0,0,0,0,0,0,0,0,0,0,0,0,0,0,0,0,0,0,0,0,0,0,0,0,0,0,0,0,0,0,0,0,0,-2.5013,-2.5012,0,-2.4987,-2.4987,-2.4986,-2.4959,-2.4959,-2.4958,-2.4958,-2.493,-2.493,-2.493,0,0,0,0,0,0,0,0,0,0,0,0,0,-2.5038,-2.5038,-2.5013,-2.5012,-2.5012,-2.4987,-2.4987,-2.4986,-2.4959,-2.4959,-2.4958,-2.4958,-2.4931,-2.493,-2.493,0,0,0,0,0,0,0,0,0,0,0,0,0,-2.5021,-2.5038,-2.5013,-2.4995,-2.4994,-2.4987,-2.4987,-2.4986,-2.4959,-2.4959,-2.4958,-2.4958,-2.4931,-2.493,-2.493,-2.4937,0,0,-2.4928,-2.4928,0,0,0,0,0,0,0,0,-2.5022,-2.502,-2.4998,-2.4997,-2.4995,-2.4976,-2.4985,-2.497,-2.4959,-2.4972,-2.4958,-2.4957,-2.4946,-2.4944,-2.494,-2.4936,-2.4935,-2.4928,-2.4927,-2.4927,-2.4927,0,0,0,0,0,0,0,-2.5023,-2.5021,-2.5002,-2.4998,-2.4996,-2.4989,-2.4986,-2.4982,-2.4963,-2.4971,-2.4969,-2.4967,-2.4945,-2.4941,-2.494,-2.4935,-2.4928,-2.4927,-2.4927,-2.4927,-2.4936,-2.4936,0,0,0,0,0,0,-2.5027,-2.5022,-2.5003,-2.5002,-2.5007,-2.4989,-2.4986,-2.4982,-2.4963,-2.4959,-2.4967,-2.4965,-2.4942,-2.494,-2.4938,-2.4946,-2.4927,-2.4927,-2.4926,-2.4935,-2.4936,-2.4936,0,0,0,0,0,0,-2.5028,-2.5026,-2.5004,-2.5011,-2.5008,-2.4989,-2.4986,-2.4982,-2.4978,-2.4959,-2.4956,-2.4967,-2.4942,-2.4939,-2.4938,-2.4944,-2.4926,-2.4926,-2.4934,-2.4935,-2.4936,-2.4961,0,0,0,0,0,0,-2.5029,-2.5026,-2.5029,-2.5012,-2.5008,-2.5004,-2.4986,-2.4982,-2.4978,-2.4975,-2.4958,-2.4955,-2.4941,-2.4939,-2.4937,-2.4943,-2.4925,-2.4934,-2.4935,-2.4936,-2.4959,-2.4963,-2.4965,0,0,0,0,0,-2.503,-2.5037,-2.5029,-2.5027,-2.5011,-2.5005,-2.5003,-2.4987,-2.4978,-2.4981,-2.4969,-2.4955,-2.4945,-2.4939,-2.4937,-2.4943,-2.4933,-2.4934,-2.4936,-2.4958,-2.4962,-2.4965,0,0,0,0,0,0,-2.5054,-2.5034,-2.5025,-2.5027,-2.5018,-2.5,-2.5003,-2.4991,-2.4984,-2.4982,-2.4963,-2.4959,-2.496,-2.4952,-2.4946,-2.495,-2.4937,-2.4938,-2.4955,-2.4958,-2.4961,-2.4962,-2.4925,0,0,0,0,0,-2.506,-2.5057,-2.5039,-2.5043,-2.5039,-2.5022,-2.5018,-2.5007,-2.4997,-2.4993,-2.498,-2.4971,-2.4965,-2.4961,-2.4955,-2.4959,-2.4954,-2.4962,-2.4965,-2.4968,-2.4968,-2.4969,-2.4972,-2.4941,-2.4941,-2.494,0,0,-2.5072,-2.506,-2.5059,-2.5047,-2.5039,-2.5036,-2.5018,-2.5016,-2.5013,-2.4992,-2.499,-2.4981,-2.4969,-2.497,-2.497,-2.4963,-2.4976,-2.4969,-2.4971,-2.497,-2.4971,-2.4974,-2.4976,-2.4941,-2.4941,-2.4941,0,0,-2.5091,-2.5082,-2.5084,-2.5076,-2.5064,-2.5053,-2.5053,-2.5038,-2.5031,-2.5029,-2.5013,-2.501,-2.5,-2.4992,-2.4987,-2.5005,-2.4992,-2.5004,-2.5018,-2.5019,-2.5022,-2.5024,-2.5029,-2.5031,-2.5004,-2.5005,-2.5005,0,-2.5106,-2.5101,-2.5086,-2.5084,-2.5079,-2.5061,-2.5063,-2.5056,-2.5042,-2.5039,-2.5032,-2.502,-2.5011,-2.501,-2.5014,-2.5011,-2.501,-2.5004,-2.5023,-2.5025,-2.5026,-2.5031,-2.5033,-2.5006,-2.5006,-2.5006,-2.5005,0,-2.5121,-2.5118,-2.512,-2.5108,-2.5104,-2.5104,-2.5088,-2.5086,-2.5076,-2.5066,-2.5064,-2.5052,-2.5043,-2.5043,-2.5032,-2.504,-2.5036,-2.5026,-2.5013,-2.5031,-2.5035,-2.5037,-2.5008,-2.5007,-2.5007,-2.5007,0,0,-2.5153,-2.5133,-2.5134,-2.5128,-2.5114,-2.5111,-2.5111,-2.5103,-2.5101,-2.5092,-2.5091,-2.5084,-2.5075,-2.5069,-2.5059,-2.506,-2.5074,-2.505,-2.5049,-2.5054,-2.5081,-2.5087,-2.509,-2.5067,-2.5067,-2.5067,-2.5082,0,-2.5168,-2.5166,-2.5153,-2.5154,-2.5151,-2.5134,-2.5134,-2.5125,-2.5116,-2.5112,-2.5102,-2.5097,-2.5086,-2.5083,-2.5083,-2.5072,-2.5079,-2.5071,-2.5064,-2.5064,-2.5066,-2.5092,-2.5099,-2.5113,-2.5083,-2.5084,-2.5084,0,-2.5186,-2.5179,-2.518,-2.5166,-2.5164,-2.5164,-2.5156,-2.5152,-2.5142,-2.5136,-2.513,-2.5118,-2.5117,-2.5106,-2.5103,-2.5098,-2.5095,-2.5089,-2.5089,-2.5086,-2.5074,-2.5089,-2.5117,-2.5119,-2.5087,-2.5086,-2.5086,0,-2.5208,-2.5199,-2.5198,-2.5194,-2.5178,-2.5179,-2.5172,-2.5162,-2.5158,-2.5151,-2.5148,-2.5141,-2.5137,-2.5132,-2.5118,-2.5111,-2.5117,-2.5105,-2.511,-2.5111,-2.5111,-2.511,-2.5137,-2.5111,-2.5111,-2.5111,-2.5111,0,-2.5226,-2.5227,-2.5208,-2.5208,-2.5208,-2.5194,-2.5195,-2.5187,-2.5178,-2.5176,-2.5162,-2.516,-2.5143,-2.5139,-2.5129,-2.5128,-2.5126,-2.512,-2.5117,-2.5121,-2.5121,-2.5117,-2.5115,-2.5112,-2.5112,-2.5112,-2.5111,0,-2.5249,-2.5237,-2.5235,-2.5221,-2.5217,-2.5219,-2.5206,-2.5205,-2.5196,-2.5193,-2.5192,-2.5177,-2.5172,-2.5159,-2.515,-2.5143,-2.5145,-2.514,-2.5148,-2.5146,-2.5152,-2.5151,-2.5175,-2.5178,-2.5152,-2.5152,-2.5152,0,-2.5261,-2.5261,-2.5247,-2.5245,-2.5239,-2.5235,-2.5231,-2.5217,-2.5214,-2.5203,-2.5203,-2.5197,-2.5191,-2.5184,-2.5172,-2.5166,-2.516,-2.5169,-2.5159,-2.5162,-2.5159,-2.5158,-2.5158,-2.5171,-2.5171,-2.5172,-2.5172,0,-2.5282,-2.5276,-2.5271,-2.5264,-2.526,-2.5254,-2.5247,-2.5246,-2.523,-2.5227,-2.5222,-2.5218,-2.5209,-2.5203,-2.5195,-2.5188,-2.5177,-2.5176,-2.5176,-2.5179,-2.5183,-2.518,-2.5152,-2.5175,-2.5174,-2.5174,-2.5174,-2.5174,-2.5299,-2.5299,-2.5289,-2.5284,-2.5277,-2.5271,-2.527,-2.5261,-2.5256,-2.5248,-2.5241,-2.5236,-2.5227,-2.5215,-2.5209,-2.5205,-2.5199,-2.5201,-2.5201,-2.5201,-2.5202,-2.5185,-2.5204,-2.5204,-2.5203,-2.5203,-2.5203,0,-2.5319,-2.5312,-2.5308,-2.5298,-2.5294,-2.5286,-2.5278,-2.5275,-2.5271,-2.5264,-2.5259,-2.5253,-2.5247,-2.5236,-2.5229,-2.5228,-2.5223,-2.5227,-2.5226,-2.5224,-2.5208,-2.5207,-2.5231,-2.5231,-2.5231,-2.5231,-2.5231,-2.5231,-2.5328,-2.5327,-2.532,-2.5316,-2.5309,-2.5304,-2.53,-2.5295,-2.5289,-2.5283,-2.5278,-2.5271,-2.5262,-2.5255,-2.5249,-2.5246,-2.5244,-2.5249,-2.5244,-2.5228,-2.5226,-2.5223,-2.5222,-2.5249,-2.5249,-2.526,-2.526,-2.526]},{"header":{"parameterUnit":"m.s-1","parameterCategory":1,"la1":30.2991,"la2":30.254,"lo1":-89.0895,"lo2":-89.0444,"dy":0.0017,"dx":0.0017,"nx":28,"ny":28,"refTime":"2025-03-23T03:00:00:Z","depth":0,"parameterNumber":3,"parameterNumberName":"V-component_of_WINDS"},"data":[0,0,0,0,0,0,0,0,0,0,0,0,0,0,0,0,0,0,0,0,0,0,0,0,0,0,0,0,0,0,0,0,0,0,0,0,0,0,0,0,0,0,0,0,0,0,0,0,0,0,0,0,0,0,0,0,0,0,6.3532,6.3533,0,6.3556,6.3557,6.3557,6.3537,6.3536,6.3535,6.3535,6.3556,6.3557,6.3559,0,0,0,0,0,0,0,0,0,0,0,0,0,6.3469,6.347,6.3532,6.3533,6.3533,6.3556,6.3557,6.3557,6.3537,6.3536,6.3535,6.3534,6.3555,6.3557,6.3559,0,0,0,0,0,0,0,0,0,0,0,0,0,6.3495,6.347,6.3532,6.3526,6.3526,6.3556,6.3557,6.3557,6.3537,6.3536,6.3535,6.3534,6.3555,6.3557,6.3559,6.3596,0,0,6.3565,6.3566,0,0,0,0,0,0,0,0,6.3493,6.3497,6.3527,6.3526,6.3526,6.3542,6.3542,6.357,6.3538,6.3533,6.3535,6.3533,6.3552,6.3554,6.3561,6.3597,6.3598,6.3565,6.3566,6.3567,6.3568,0,0,0,0,0,0,0,6.3492,6.3496,6.3542,6.3527,6.3527,6.3522,6.3524,6.3547,6.3549,6.3533,6.3532,6.3535,6.3552,6.356,6.3562,6.3598,6.3565,6.3567,6.3568,6.3569,6.3669,6.367,0,0,0,0,0,0,6.3491,6.3495,6.3541,6.3542,6.3507,6.3524,6.3527,6.3538,6.3549,6.3549,6.3536,6.3534,6.3557,6.3559,6.3562,6.3609,6.3567,6.3569,6.357,6.3668,6.3669,6.3671,0,0,0,0,0,0,6.3489,6.3495,6.354,6.3518,6.3524,6.3526,6.354,6.354,6.3547,6.3551,6.3551,6.3544,6.3556,6.356,6.3589,6.361,6.357,6.3572,6.3666,6.3668,6.367,6.3701,0,0,0,0,0,0,6.3488,6.3495,6.3509,6.3519,6.3525,6.3566,6.3541,6.3541,6.3551,6.3549,6.3558,6.3559,6.3555,6.3586,6.3591,6.3612,6.3573,6.3664,6.3667,6.3669,6.3698,6.3704,6.3709,0,0,0,0,0,6.3485,6.3515,6.3509,6.3515,6.3542,6.3567,6.3571,6.3567,6.3553,6.3567,6.357,6.3558,6.3607,6.3589,6.3594,6.3616,6.3663,6.3666,6.3669,6.3696,6.3703,6.3709,0,0,0,0,0,0,6.3505,6.3516,6.351,6.3543,6.3555,6.3564,6.3581,6.3574,6.3589,6.3586,6.358,6.3582,6.3614,6.3617,6.3598,6.3654,6.3632,6.3637,6.3651,6.3658,6.3663,6.3662,6.3575,0,0,0,0,0,6.3513,6.3533,6.3541,6.357,6.3576,6.3578,6.3589,6.3586,6.3597,6.3601,6.3606,6.3616,6.3634,6.3646,6.3662,6.3699,6.3702,6.3717,6.3722,6.3727,6.3731,6.3754,6.3761,6.3682,6.3682,6.3682,0,0,6.353,6.3539,6.3551,6.3574,6.3583,6.3604,6.3582,6.3604,6.362,6.3604,6.3633,6.3637,6.3649,6.3683,6.3698,6.3687,6.3754,6.3731,6.3734,6.3736,6.3758,6.3765,6.3772,6.3684,6.3684,6.3683,0,0,6.3572,6.358,6.3607,6.3617,6.3631,6.3632,6.3639,6.365,6.3653,6.3683,6.3672,6.369,6.372,6.373,6.3739,6.379,6.378,6.3795,6.3823,6.3846,6.3852,6.3858,6.3878,6.3885,6.3799,6.3799,6.3799,0,6.3591,6.3623,6.3621,6.3646,6.3657,6.3646,6.3673,6.3683,6.3701,6.3709,6.3697,6.3737,6.3744,6.3782,6.3795,6.3801,6.381,6.3794,6.3852,6.3857,6.3862,6.3882,6.3889,6.3801,6.3801,6.3801,6.38,0,6.3647,6.367,6.369,6.3711,6.3724,6.375,6.3752,6.3766,6.3763,6.3766,6.3798,6.3806,6.3825,6.3834,6.3829,6.3872,6.3865,6.3852,6.383,6.3872,6.389,6.3897,6.3804,6.3803,6.3802,6.3802,0,0,6.37,6.3723,6.373,6.3741,6.3758,6.3775,6.3801,6.3822,6.3836,6.3849,6.3872,6.39,6.3889,6.39,6.3896,6.3916,6.3959,6.3901,6.3901,6.3913,6.401,6.4021,6.4029,6.3953,6.3954,6.3955,6.401,0,6.3745,6.3793,6.3793,6.3836,6.3859,6.385,6.3873,6.3886,6.3891,6.391,6.3915,6.3936,6.3919,6.3926,6.3945,6.395,6.3978,6.3946,6.3975,6.3976,6.3974,6.4038,6.4049,6.41,6.4016,6.4018,6.4018,0,6.3803,6.3822,6.3869,6.3886,6.3895,6.3916,6.3938,6.3956,6.3971,6.3973,6.3987,6.3982,6.401,6.3987,6.4026,6.4004,6.4016,6.4021,6.4023,6.4026,6.4,6.4045,6.4115,6.4124,6.4029,6.4028,6.4027,0,6.3841,6.3877,6.3911,6.392,6.394,6.3956,6.3964,6.3979,6.3993,6.4011,6.402,6.4041,6.4052,6.4069,6.407,6.4053,6.411,6.4087,6.4114,6.4114,6.4126,6.4126,6.4201,6.4132,6.4132,6.4132,6.4131,0,6.3891,6.3921,6.3929,6.3949,6.3983,6.3983,6.4016,6.4024,6.4037,6.406,6.4052,6.4073,6.4073,6.4095,6.4096,6.413,6.4134,6.4137,6.4137,6.4139,6.4139,6.4147,6.4144,6.4134,6.4133,6.4133,6.4132,0,6.3938,6.3944,6.3981,6.3998,6.4004,6.4028,6.4042,6.4063,6.4068,6.4097,6.4103,6.4111,6.4137,6.414,6.4168,6.4169,6.4211,6.4206,6.4206,6.4206,6.4234,6.4232,6.4319,6.4331,6.4252,6.4253,6.4253,0,6.3971,6.3994,6.4015,6.4031,6.4041,6.4066,6.4081,6.4083,6.4099,6.4121,6.4139,6.4164,6.4185,6.4227,6.4234,6.4257,6.4254,6.4283,6.4258,6.426,6.4257,6.4257,6.426,6.4288,6.4289,6.429,6.4291,0,6.4029,6.4032,6.4055,6.4081,6.41,6.4119,6.4137,6.415,6.4155,6.4173,6.4201,6.4217,6.4249,6.4275,6.4298,6.4307,6.43,6.4299,6.4307,6.4309,6.4309,6.4312,6.4222,6.4297,6.4296,6.4296,6.4295,6.4295,6.4072,6.4093,6.4113,6.4139,6.4154,6.4172,6.4193,6.4203,6.4226,6.4253,6.4253,6.4284,6.4301,6.4332,6.4343,6.4368,6.4358,6.4369,6.4372,6.4375,6.4379,6.4305,6.4371,6.4371,6.4371,6.4371,6.4371,0,6.4132,6.4145,6.4169,6.4197,6.4219,6.4212,6.4233,6.4251,6.4279,6.4297,6.4318,6.4351,6.4377,6.4389,6.4415,6.4432,6.443,6.4439,6.4438,6.4441,6.4385,6.4376,6.4441,6.4441,6.444,6.444,6.444,6.444,6.4166,6.4203,6.4209,6.4254,6.4266,6.4298,6.4311,6.4328,6.4343,6.4381,6.4403,6.4411,6.4427,6.4454,6.4478,6.4481,6.4492,6.4503,6.4504,6.4451,6.4444,6.4438,6.443,6.4504,6.4505,6.4559,6.4559,6.456]}]]